Back to catalog

STARLINK-3315

AliveCommunicationsVLEO
NORAD 50848·PAYLOAD·🇺🇸 United States

Launched Jan 6, 2022 from Cape Canaveral Space Force Station

Loading…

Next Passes (next 24 hours)

TLE

FreshSource: CelesTrak SupGP

Epoch: Sep 14, 2026, 14:29 UTC

1 50848C 22001AX  26257.60395833 -.00021177  00000+0 -62573-3 0  2571
2 50848  53.1599  37.6345 0001213  86.5241 159.6459 15.34398137    14

Track STARLINK-3315 in real time with AllMySat

Download on the App Store